Spring Hill, FL

12:42 PM EDT on October 01, 2016 (GMT -0400)
Hernando County

Weather History for KBKV - October, 2013

Change the Weather History Date:

Friday, October 18, 2013

  Actual Average Record
Temperature  
Mean Temperature 76 °F -  
Max Temperature 88 °F 81 °F 91 °F (2007)
Min Temperature 64 °F 57 °F 45 °F (2000)
Cooling Degree Days 10    
Growing Degree Days 26 (Base 50)    
Moisture  
Dew Point 67 °F    
Average Humidity 88    
Maximum Humidity 100    
Minimum Humidity 51    
Precipitation  
Precipitation 0.00 in - - ()
Sea Level Pressure  
Sea Level Pressure 29.96 in    
Wind  
Wind Speed 2 mph (ESE)    
Max Wind Speed 10 mph    
Max Gust Speed -    
Visibility 6 miles    
Events      
Averages and records for this station are not official NWS values.
T = Trace of Precipitation, MM = Missing Value Source: NWS Daily Summary

Daily Weather History Graph

Daily Weather History Graph

Search for Another Location

Airport or City:

Trip Planner

Search our weather history database for the weather conditions in past years. The results will help you decide how hot, cold, wet, or windy it might be!

Date:

Astronomy

Oct. 18, 2013 Rise Set
Actual Time 7:32 AM EDT 6:56 PM EDT
Civil Twilight 7:08 AM EDT 7:20 PM EDT
Nautical Twilight 6:41 AM EDT 7:48 PM EDT
Astronomical Twilight 6:13 AM EDT 8:15 PM EDT
Moon 6:48 PM EDT (10/18) 7:06 AM EDT (10/18)
Length of Visible Light 12h 12m
Length of Day
11h 24m
Full, 100% of the Moon is Illuminated
Oct 18
Full
Oct 18
Full
Oct 26
Last Quarter
Nov 3
New
Nov 10
First Quarter

Hourly Weather History & Observations

Time (EDT) Temp. Heat Index Dew Point Humidity Pressure Visibility Wind Dir Wind Speed Gust Speed Precip Events Conditions
12:06 AM 66.2 °F - 66.2 °F 100% 29.96 in 1.8 mi Calm Calm - N/A   Clear
12:13 AM 66.2 °F - 66.2 °F 100% 29.96 in 0.8 mi Calm Calm - N/A   Clear
12:23 AM 69.8 °F - 68.0 °F 94% 29.96 in 1.8 mi East 6.9 mph - N/A   Clear
12:26 AM 69.8 °F - 69.8 °F 100% 29.96 in 4.0 mi East 6.9 mph - N/A   Partly Cloudy
12:53 AM 70.0 °F - 68.0 °F 93% 29.95 in 10.0 mi East 3.5 mph - N/A   Mostly Cloudy
1:53 AM 66.9 °F - 66.0 °F 97% 29.94 in 10.0 mi Calm Calm - N/A   Clear
2:53 AM 66.0 °F - 66.0 °F 100% 29.94 in 8.0 mi Calm Calm - N/A   Clear
3:45 AM 64.4 °F - 64.4 °F 100% 29.94 in 2.5 mi Calm Calm - N/A   Clear
3:53 AM 64.9 °F - 64.9 °F 100% 29.94 in 2.5 mi Calm Calm - N/A   Clear
4:08 AM 64.4 °F - 64.4 °F 100% 29.94 in 1.5 mi Calm Calm - N/A   Clear
4:16 AM 64.4 °F - 64.4 °F 100% 29.94 in 0.8 mi Calm Calm - N/A   Clear
4:19 AM 64.4 °F - 64.4 °F 100% 29.94 in 1.8 mi Calm Calm - N/A   Clear
4:21 AM 64.4 °F - 64.4 °F 100% 29.94 in 3.0 mi Calm Calm - N/A   Clear
4:53 AM 64.9 °F - 64.9 °F 100% 29.94 in 2.0 mi Calm Calm - N/A   Clear
5:03 AM 64.4 °F - 64.4 °F 100% 29.94 in 4.0 mi Calm Calm - N/A   Partly Cloudy
5:53 AM 66.0 °F - 66.0 °F 100% 29.95 in 10.0 mi Calm Calm - N/A   Partly Cloudy
6:53 AM 64.0 °F - 64.0 °F 100% 29.96 in 2.5 mi Calm Calm - N/A   Clear
7:02 AM 64.4 °F - 64.4 °F 100% 29.97 in 5.0 mi Calm Calm - N/A   Clear
7:13 AM 64.4 °F - 64.4 °F 100% 29.97 in 1.8 mi Calm Calm - N/A   Clear
7:20 AM 64.4 °F - 64.4 °F 100% 29.97 in 1.0 mi Calm Calm - N/A   Clear
7:31 AM 64.4 °F - 64.4 °F 100% 29.98 in 6.0 mi Calm Calm - N/A   Clear
7:53 AM 64.9 °F - 64.9 °F 100% 29.98 in 6.0 mi Calm Calm - N/A   Mostly Cloudy
8:53 AM 72.0 °F - 71.1 °F 97% 30.00 in 10.0 mi Calm Calm - N/A   Clear
9:53 AM 78.1 °F - 72.0 °F 81% 30.00 in 10.0 mi SE 6.9 mph - N/A   Clear
10:53 AM 82.0 °F 86.3 °F 71.1 °F 69% 30.01 in 10.0 mi SE 6.9 mph - N/A   Clear
11:53 AM 84.0 °F 88.4 °F 70.0 °F 63% 30.00 in 10.0 mi Variable 4.6 mph - N/A   Clear
12:53 PM 86.0 °F 90.7 °F 70.0 °F 59% 29.98 in 10.0 mi Variable 5.8 mph - N/A   Scattered Clouds
1:53 PM 87.1 °F 91.3 °F 69.1 °F 55% 29.95 in 10.0 mi SE 10.4 mph - N/A   Mostly Cloudy
2:53 PM 87.1 °F 90.6 °F 68.0 °F 53% 29.92 in 10.0 mi SE 9.2 mph - N/A   Partly Cloudy
3:53 PM 87.1 °F 89.9 °F 66.9 °F 51% 29.91 in 10.0 mi ENE 3.5 mph - N/A   Scattered Clouds
4:53 PM 86.0 °F 89.4 °F 68.0 °F 55% 29.91 in 10.0 mi West 3.5 mph - N/A   Partly Cloudy
5:53 PM 82.9 °F 87.0 °F 70.0 °F 65% 29.92 in 10.0 mi West 9.2 mph - N/A   Mostly Cloudy
6:53 PM 80.1 °F 83.6 °F 71.1 °F 74% 29.94 in 10.0 mi West 6.9 mph - N/A   Partly Cloudy
7:53 PM 78.1 °F - 71.1 °F 79% 29.95 in 10.0 mi NW 4.6 mph - N/A   Mostly Cloudy
8:53 PM 75.0 °F - 71.1 °F 87% 29.96 in 10.0 mi Calm Calm - N/A   Partly Cloudy
9:53 PM 72.0 °F - 71.1 °F 97% 29.96 in 10.0 mi Calm Calm - N/A   Clear
10:53 PM 71.1 °F - 70.0 °F 96% 29.97 in 9.0 mi Calm Calm - N/A   Clear
11:53 PM 72.0 °F - 70.0 °F 93% 29.97 in 10.0 mi Calm Calm - N/A   Partly Cloudy